Weather Roundup
Issued by NWS

Home | Current Version | Previous Version | Graphics & Text | Print | Product List | Glossary Off
Versions: 1 2 3 4 5 6 7 8 9 10 11 12 13 14 15 16 17 18 19 20 21 22 23 24 25 26 27 28 29 30 31 32 33 34 35 36 37 38 39 40 41 42 43 44 45 46 47 48 49 50

000
NZUS93 KARX 241659
HRRWXR

CURRENT HOURLY OBSERVATIONS ACROSS
MUCH OF THE UPPER MISSISSIPPI VALLEY
NATIONAL WEATHER SERVICE LA CROSSE WI
1200 PM CDT FRI OCT 24 2014


...SOUTHEAST MINNESOTA...


CITY           SKY/WX    TMP DP  RH WIND       PRES   REMARKS
ROCHESTER      CLOUDY    58  55  90 S12       29.92F
ROCHESTER/MAYO CLOUDY    58  55  87 S9G16     29.90F
WINONA         MOSUNNY   59  52  77 SE10      29.92F
AUSTIN         FOG       54  52  94 S13       29.92S VSB 1
ALBERT LEA     FOG       54  54 100 S6        29.90S VSB 1/4
DODGE CENTER   CLOUDY    55  54  94 S16       29.90S FOG
PRESTON        CLOUDY    59  55  87 S10G18    29.92F
OWATONNA       MOSUNNY   57  54  88 S8G16     29.89R FOG
FARIBAULT      PTSUNNY   59  54  82 S8        29.89R
$$

...ELSEWHERE IN MINNESOTA...


CITY           SKY/WX    TMP DP  RH WIND       PRES   REMARKS
MINNEAPOLIS    PTSUNNY   60  51  72 S6        29.87F
INTNL FALLS    MOSUNNY   63  42  46 SW9G18    29.73F
DULUTH         MOSUNNY   61  47  59 SW13      29.83F
RED WING       CLOUDY    57  52  82 SE8       29.88F
REDWOOD FALLS  PTSUNNY   61  51  70 NW6       29.86S
MANKATO        CLOUDY    63  50  63 W9        29.87S
WORTHINGTON    CLOUDY    61  52  72 W6        29.90F
FAIRMONT       CLOUDY    63  39  42 SW10      29.89R
$$

...SOUTHWEST WISCONSIN...


CITY           SKY/WX    TMP DP  RH WIND       PRES   REMARKS
LA CROSSE      PTSUNNY   59  53  80 S9        29.96F
PRAIRIE DU CHI CLOUDY    56  53  89 SE7       29.99F FOG
BOSCOBEL       CLOUDY    59  53  80 S8        30.01F
LONE ROCK      CLOUDY    57  52  82 S6        30.02F
PLATTEVILLE    CLOUDY    54  53  98 S12       30.04S VSB 3/4
FORT MC COY    MOSUNNY   57  49  77 S5        29.99F
CAMP DOUGLAS   CLOUDY    52  52 100 VRB6      30.00F
VIROQUA        CLOUDY    53  53 100 S6        29.99F
WIS DELLS      CLOUDY    50  49  96 SW5       30.02S
$$

...ELSEWHERE IN WISCONSIN...


CITY           SKY/WX    TMP DP  RH WIND       PRES   REMARKS
MILWAUKEE      CLOUDY    53  49  86 SW8       30.03F
MADISON        CLOUDY    52  50  93 S7        30.03F FOG
GREEN BAY      CLOUDY    50  48  93 SW8       30.00F FOG
EAU CLAIRE     MOSUNNY   55  49  80 SE12      29.92F
BLACK RVR FLS  CLOUDY    52  52 100 S6        29.97F
MEDFORD        CLOUDY    47  47 100 S7        29.97S FOG
WAUSAU         CLOUDY    47  46  97 SW6       29.98S FOG
WIS RAPIDS     CLOUDY    49  48  97 S6        30.01S FOG
MARSHFIELD     CLOUDY    49  48  97 S7        29.98S FOG
RICE LAKE      PTSUNNY   55  49  80 SE12      29.91F
$$

...NORTHEAST IOWA...


CITY           SKY/WX    TMP DP  RH WIND       PRES   REMARKS
DECORAH        MOSUNNY   59  55  88 S10G20    29.95F
MASON CITY     FOG       55  55 100 S8        29.93F VSB 1/2
CHARLES CITY   FOG       52  52 100 S12G17    29.95S VSB 1/2
OELWEIN        FOG       54  54 100 S15       29.98F VSB 1/4
$$

...ELSEWHERE IN IOWA...


CITY           SKY/WX    TMP DP  RH WIND       PRES   REMARKS
DES MOINES     CLOUDY    63  60  90 S12       29.95F FOG
IOWA CITY      CLOUDY    55  55 100 S9        30.04F FOG
FORT DODGE     CLOUDY    63  57  82 SW8       29.92S
$$

...NORTHERN ILLINOIS...


CITY           SKY/WX    TMP DP  RH WIND       PRES   REMARKS
CHICAGO-OHARE  PTSUNNY   60  48  64 S5        30.04F
CHICAGO-MIDWAY PTSUNNY   61  50  67 SW5       30.05F
MOLINE         PTSUNNY   59  53  80 S6        30.05F
ROCKFORD       CLOUDY    52  50  93 SW8       30.08S FOG
PEORIA         PTSUNNY   61  53  75 SW7       30.08F HAZE
$$

NOTE: "FAIR" INDICATES FEW OR NO CLOUDS BELOW 12,000 FEET WITH NO
SIGNIFICANT WEATHER AND/OR OBSTRUCTIONS TO VISIBILITY. WIND
SPEEDS ARE IN MILES-PER-HOUR.



USA.gov is the U.S. government's official web portal to all federal, state and local government web resources and services.